Dewpoint
56 56 55 55 55 55 55 55 55 55 55 55 54 54 54 53 53 53 53 53 53 53 53 53 54 54 50 37 28 37 63 59 46 46 37 33 34 51 55 56 55 56 57 56 56 58 59
55 56 56 56 56 55 55 55 55 55 55 54 54 54 54 54 53 53 53 53 53 53 52 53 54 55 41 25 32 50 43 46 43 39 35 32 34 52 55 55 55 57 56 56 57 58 59
57 56 55 56 55 55 55 55 55 55 55 55 54 54 53 53 53 53 52 52 52 52 53 53 54 50 37 24 34 50 43 44 41 35 35 34 41 54 52 48 54 57 55 56 57 58 57
59 57 56 56 57 56 56 55 55 55 54 54 54 54 54 53 53 52 52 52 51 53 53 53 54 47 23 26 37 44 38 41 39 33 32 41 54 51 47 47 57 56 55 54 57 59 61
59 59 56 56 57 57 56 56 55 55 55 55 54 54 53 53 53 52 52 52 53 54 54 54 50 41 21 39 32 34 26 27 28 29 30 38 50 48 44 47 52 56 52 52 56 58 60
59 59 57 56 57 57 57 56 56 55 55 55 55 54 53 53 52 52 52 52 55 55 53 50 45 41 32 31 34 34 31 29 26 26 26 38 47 46 39 41 46 50 50 50 53 57 58
59 59 58 56 56 58 57 56 56 56 56 56 56 55 53 53 52 52 49 49 45 45 45 33 28 29 27 34 36 32 29 26 25 22 22 30 40 44 40 37 35 49 50 48 52 57 58
60 59 58 58 56 57 57 56 55 56 56 56 56 54 53 53 52 52 47 35 36 35 31 33 34 33 31 31 31 33 27 24 23 17 25 27 34 42 43 34 36 43 47 46 51 55 55
60 59 58 58 56 56 57 56 55 56 56 56 56 54 53 52 52 49 39 35 37 37 32 28 29 28 29 30 28 30 31 25 21 16 25 21 25 41 40 33 34 38 42 43 49 54 54
60 59 58 58 56 57 57 55 55 55 56 56 56 53 53 52 47 41 36 38 37 38 26 27 27 28 31 30 28 30 28 25 19 16 19 19 27 36 38 38 34 34 33 45 51 49 49
60 59 58 57 57 57 57 55 55 55 55 55 55 53 52 51 45 37 36 38 38 34 19 26 27 31 30 29 30 28 28 26 21 16 24 23 28 34 34 38 37 33 31 38 44 46 49
60 59 58 57 57 57 56 55 55 55 55 55 54 52 51 48 47 39 39 37 34 25 21 24 26 26 26 26 27 28 30 29 26 22 25 26 31 31 31 34 36 32 31 36 42 42 41
59 58 57 57 57 56 56 54 54 54 54 54 52 51 50 44 36 39 38 38 27 20 27 23 24 25 25 24 26 28 29 28 25 24 20 26 29 29 30 32 34 34 32 30 31 32 31
59 57 57 57 57 56 56 55 54 54 54 53 50 50 50 44 43 41 39 32 23 23 24 26 26 25 21 22 25 27 28 25 28 24 18 23 22 27 27 27 30 34 31 30 32 30 29
59 57 56 57 57 56 56 55 54 54 53 51 50 45 42 41 44 43 37 24 23 24 24 24 25 22 22 21 23 27 27 25 26 26 23 21 21 24 24 25 25 30 31 31 29 32 29
59 57 57 57 57 56 56 55 54 54 53 52 46 40 40 43 44 39 30 27 25 26 26 25 24 28 23 20 22 24 26 28 27 28 29 26 22 21 23 23 24 23 27 28 28 31 28
59 57 57 57 57 56 57 55 54 53 52 51 44 32 41 43 41 34 25 26 25 23 26 24 23 27 28 24 23 23 27 26 27 28 31 27 24 23 23 23 20 23 22 22 25 27 25
58 57 57 57 57 57 57 54 53 53 51 50 39 32 41 40 33 31 26 22 29 16 22 25 26 28 30 31 25 25 25 27 25 27 27 29 24 26 20 25 26 21 21 23 19 30 27
58 57 57 57 57 57 56 54 53 52 52 50 38 37 39 35 26 25 28 19 22 18 18 23 25 29 34 33 32 28 27 30 32 26 29 30 26 25 25 24 27 23 23 24 22 21 31
57 57 57 57 57 57 56 54 53 53 52 50 40 31 32 34 31 23 24 22 21 25 23 26 30 30 30 32 34 30 28 28 33 32 43 35 26 29 21 23 24 28 28 25 23 20 23
55 56 57 57 57 57 56 55 54 53 52 49 39 30 32 22 23 25 25 23 21 20 24 25 32 29 29 30 30 29 29 30 32 41 34 33 31 29 28 27 26 27 26 24 25 23 24
55 56 57 57 56 56 57 55 54 53 52 49 41 36 36 32 30 25 28 26 20 20 26 22 28 28 30 33 34 31 30 32 31 33 35 33 33 33 31 30 27 31 34 30 27 28 26
55 55 56 56 55 56 57 55 54 53 51 45 48 47 43 34 26 23 25 25 22 24 28 32 32 30 28 31 32 32 30 30 31 33 34 35 34 33 29 30 30 27 30 31 35 36 35
55 55 54 56 55 55 56 56 55 54 52 49 48 48 40 25 25 25 23 22 23 27 25 20 33 32 33 33 32 27 27 30 30 30 31 35 39 34 28 32 28 33 33 33 35 37 39
55 55 54 54 55 54 55 56 54 54 53 50 50 49 43 28 27 27 25 24 30 32 27 22 30 35 36 32 30 30 27 29 29 30 28 35 35 31 29 29 30 31 33 32 31 34 40
55 55 55 53 54 54 55 57 54 54 53 50 49 53 49 35 26 28 28 30 29 31 29 27 34 36 36 32 30 31 32 30 28 28 31 30 36 29 27 27 26 33 32 34 34 31 40
54 55 55 54 53 54 54 56 53 54 53 51 50 56 50 40 34 34 28 30 32 32 31 32 33 33 36 29 30 35 37 37 33 28 31 29 31 30 26 26 27 34 34 36 32 37 43
54 55 55 55 52 53 54 56 53 53 53 51 51 56 51 43 42 40 35 37 36 33 30 37 33 33 31 32 33 40 39 40 37 36 34 30 31 32 31 29 29 37 35 34 42 42 42
54 54 55 55 52 52 54 56 52 53 53 52 50 53 53 48 43 46 42 42 40 39 36 37 37 34 34 32 36 38 36 36 34 36 39 38 34 41 31 35 43 43 43 43 41 43 43
Lifted_Index
15 15 15 16 16 16 17 17 17 17 17 17 17 17 17 17 17 16 16 16 16 16 15 15 14 13 11 10 10 9 7 8 9 8 7 7 6 2 -1 -1 -1 -2 -2 -2 -2 -2 -2
15 15 15 15 16 17 17 17 17 17 17 17 17 17 17 17 17 16 16 16 16 16 15 15 14 12 11 10 9 8 7 8 8 8 7 7 5 2 -1 -1 -2 -2 -2 -2 -2 -2 -2
14 15 15 15 16 17 17 18 18 18 18 18 17 17 17 17 17 16 16 16 16 15 15 14 13 12 10 10 9 8 7 8 8 8 8 6 4 1 -0 -1 -2 -2 -2 -2 -2 -2 -2
13 14 15 15 16 16 17 17 18 18 18 18 17 17 16 16 16 16 15 14 14 14 14 13 12 11 10 10 9 8 8 8 8 9 8 6 2 1 0 -0 -2 -3 -3 -2 -2 -2 -2
11 12 14 15 15 16 16 17 17 17 18 17 16 16 16 15 15 14 12 11 11 11 11 11 10 10 9 9 9 9 9 9 9 9 8 5 2 1 1 -0 -2 -2 -2 -3 -3 -2 -2
11 11 13 14 15 16 16 17 17 17 17 17 16 15 15 14 13 12 10 9 8 8 9 9 9 8 8 8 8 8 9 9 9 9 8 5 2 1 1 0 -1 -1 -2 -3 -3 -2 -2
10 11 12 13 15 15 16 16 17 17 17 16 15 15 14 13 11 10 9 8 7 7 7 7 8 8 7 7 7 8 8 9 9 8 7 5 2 0 1 1 0 -1 -2 -3 -3 -3 -2
10 10 11 12 14 16 16 16 17 16 16 15 15 14 13 11 10 9 8 7 6 6 6 6 7 7 7 7 7 7 8 8 8 8 7 5 3 1 1 1 1 -1 -2 -2 -3 -3 -2
10 10 11 12 14 15 16 16 17 16 16 15 14 13 12 10 9 8 7 6 6 5 5 5 6 6 6 6 6 6 7 7 7 7 6 5 3 2 1 1 1 -0 -1 -2 -3 -3 -2
10 10 11 12 13 15 16 16 16 16 15 14 13 13 11 9 8 7 6 6 5 4 4 3 4 5 5 5 5 6 6 6 7 7 6 5 4 2 1 1 0 0 -0 -2 -3 -3 -2
10 10 10 11 12 14 15 16 16 15 15 14 13 12 10 8 7 6 6 5 4 3 2 2 3 3 4 4 5 5 6 6 6 6 5 4 3 3 2 1 1 1 1 -1 -2 -3 -2
10 10 10 11 11 13 14 15 15 15 14 13 12 11 9 7 6 6 5 4 3 2 2 2 2 2 3 3 4 4 5 5 5 5 5 4 3 3 2 1 1 1 1 -0 -2 -2 -2
9 9 9 10 10 11 13 15 15 15 14 13 12 10 8 6 5 5 4 3 2 2 2 2 1 2 2 2 2 3 4 4 4 4 4 3 3 3 3 2 2 1 0 -0 -1 -2 -2
8 8 9 9 10 10 12 14 14 14 14 12 11 9 7 6 5 4 3 2 1 2 2 2 1 1 1 1 1 2 2 3 3 3 3 3 3 3 3 3 2 1 0 -1 -1 -1 -1
7 8 8 9 9 10 11 13 14 14 13 11 9 7 5 5 4 3 2 2 2 2 2 1 1 1 1 1 1 0 1 1 1 2 2 2 3 3 4 3 3 2 1 -0 -1 -1 -1
7 7 7 8 9 9 10 11 13 13 12 10 7 5 4 4 3 3 2 2 2 2 2 1 1 -0 -0 -0 -0 -0 -0 -0 0 1 2 2 2 3 3 3 3 3 2 1 -0 -1 -1
7 7 7 8 8 9 9 10 12 13 11 8 5 3 3 3 3 2 2 2 2 3 2 1 0 -1 -1 -1 -1 -1 -1 -1 -0 1 1 1 1 2 3 3 3 3 2 2 0 -1 -1
8 7 7 7 8 8 8 10 12 12 10 6 4 2 2 2 2 2 2 2 3 3 2 1 0 -1 -1 -1 -1 -1 -1 -1 0 1 0 0 0 0 1 2 3 3 3 2 1 -0 -1
8 7 7 7 8 8 8 9 12 12 9 5 3 2 2 2 2 2 2 2 3 3 2 2 0 -0 -1 -2 -1 -1 -1 -0 0 0 0 -0 -0 -1 0 1 2 2 2 2 1 -0 -1
9 8 7 7 8 8 8 10 12 11 8 4 2 2 2 2 2 2 2 2 2 2 2 2 1 -0 -1 -1 -1 -1 -1 -0 0 0 0 -0 -1 -1 -0 0 1 1 2 2 1 0 -0
9 8 7 7 8 8 8 10 12 10 7 4 2 2 2 3 3 2 2 2 2 2 2 2 1 0 -0 -1 -1 -1 -0 -0 0 0 -0 -1 -1 -1 -1 -0 0 0 1 1 1 0 -0
10 9 7 7 8 8 8 10 12 10 6 3 1 1 2 2 3 3 2 2 3 2 2 2 1 1 0 -0 -1 -0 -0 0 0 0 -0 -1 -1 -1 -1 -1 -1 -1 -1 -0 0 -0 -0
11 10 8 7 7 8 8 10 11 10 7 3 1 1 1 2 3 3 3 3 3 3 2 2 2 1 1 1 0 0 0 1 1 0 -0 -0 -1 -1 -1 -1 -1 -1 -1 -1 -1 -1 -1
11 10 9 7 7 8 8 9 11 10 7 4 2 1 1 2 3 3 3 3 3 3 3 3 2 2 2 1 1 1 1 1 1 1 0 -0 -1 -1 -1 -1 -1 -1 -0 -0 -1 -1 -1
10 10 9 8 7 7 7 8 10 10 8 5 3 1 1 2 3 3 3 3 3 3 3 3 3 2 2 1 1 1 0 0 0 1 0 -0 -1 -1 -1 -1 -1 -0 0 0 -0 -1 -1
9 9 9 8 7 7 7 8 9 10 8 6 3 1 1 1 3 3 3 3 2 2 3 3 3 2 2 1 1 0 -0 -0 -0 0 0 0 -0 -0 -1 -1 -1 0 1 1 0 -0 -1
8 8 8 8 7 6 7 7 8 9 8 6 3 2 1 1 2 3 3 3 2 2 2 2 2 2 2 1 1 0 -0 -0 -0 0 0 0 0 0 -0 -0 0 1 1 1 0 -0 -0
7 7 7 8 7 6 6 7 8 9 8 6 3 2 1 1 2 3 3 3 2 2 2 2 2 2 2 2 1 1 0 0 0 0 0 0 0 0 0 0 1 1 1 1 1 0 0
7 7 7 8 7 6 6 7 8 9 8 6 3 2 2 1 1 2 3 3 2 2 2 2 2 2 2 2 1 1 1 1 1 0 0 0 0 0 0 1 1 1 1 1 1 1 1